Regional Weather Roundup
Issued by NWS

Home | Current Version | Previous Version | Text Only | Print | Product List | Glossary Off
Versions: 1 2 3 4 5 6 7 8 9 10 11 12 13 14 15 16 17 18 19 20 21 22 23 24 25 26 27

000
ASUS45 KBOU 181807
RWRCO

WEATHER ROUNDUP FOR COLORADO
NATIONAL WEATHER SERVICE DENVER/BOULDER CO
1200 PM MDT WED OCT 18 2017

NOTE: "FAIR" INDICATES FEW OR NO CLOUDS BELOW 12000 FEET WITH NO
SIGNIFICANT WEATHER AND/OR OBSTRUCTIONS TO VISIBILITY.

COZ001>005-013-030-031-181900-
...NORTHWEST COLORADO...

CITY           SKY/WX    TMP DP  RH WIND       PRES   REMARKS
CRAIG          FAIR      60  18  19 E3        30.30F
HAYDEN         FAIR      60  10  14 E5        30.32S
MEEKER           N/A     62  12  14 MISG      30.29F
RABBIT EARS PA FAIR      46   5  18 SW6       30.49R
STEAMBOAT SPGS FAIR      56  17  21 CALM      30.32S
WALDEN         FAIR      59   1  10 S6G16     30.36S
$$

COZ006>008-011-181900-
...WEST CENTRAL VALLEYS...

CITY           SKY/WX    TMP DP  RH WIND       PRES   REMARKS
GRAND JUNCTION FAIR      62  15  16 SE8       30.25F
MONTROSE       FAIR      60  17  18 CALM      30.29F
EAGLE          FAIR      51  14  22 W3        30.36F
RIFLE          FAIR      58  15  18 N5        30.28F
DELTA          FAIR      59   9  13 CALM      30.27F
NUCLA          FAIR      59  12  15 CALM      30.31F
$$

COZ017>023-064>068-181900-
...SOUTHWEST COLORADO...

CITY           SKY/WX    TMP DP  RH WIND       PRES   REMARKS
DURANGO        FAIR      61  18  18 NE5       30.30F
CORTEZ         FAIR      65   7  10 SW5       30.26F
PAGOSA SPRINGS FAIR      59   7  12 CALM      30.36S
TELLURIDE      NOT AVBL
WOLF CREEK PAS FAIR      46   1  15 N7        30.61R
$$

COZ009-010-012-014-032>034-037-058>063-181900-
...CENTRAL COLORADO...

CITY           SKY/WX    TMP DP  RH WIND       PRES   REMARKS
ASPEN          FAIR      60   6  11 W5        30.35F
BUENA VISTA    FAIR      53  12  19 N6        30.37F
COPPER MTN       N/A    N/A N/A N/A MISG        N/A
BERTHOUD PASS  PTSUNNY   36  27  69 NW15G22   30.57R
COTTONWOOD PAS FAIR      55 -11   6 W3        30.46F
GUNNISON       FAIR      41  10  28 VRB3      30.43S
KREMMLING      FAIR      55  12  18 CALM      30.39F
LEADVILLE      FAIR      53  -7   8 VRB5      30.45S
MONARCH PASS   FAIR      41   3  20 E3        30.67R
SALIDA         NOT AVBL
SUNLIGHT       FAIR      45   5  19 CALM      30.53S
WILKERSON PASS FAIR      46  -4  12 NW6       30.54R
$$

COZ069>075-181900-
...SAN LUIS VALLEY/SANGRE DE CRISTO MOUNTAINS...

CITY           SKY/WX    TMP DP  RH WIND       PRES   REMARKS
ALAMOSA        FAIR      55  19  24 VRB7      30.36F
DEL NORTE      FAIR      57  11  16 CALM      30.38S
LA VETA PASS   FAIR      54  18  24 SW9       30.57S
SAGUACHE       FAIR      55   9  15 NW9       30.38S
$$

COZ035-036-038>040-181900-
...NORTHERN COLORADO FRONT RANGE...

CITY           SKY/WX    TMP DP  RH WIND       PRES   REMARKS
DENVER INTL AP PTSUNNY   73  12   9 N3        30.18S
DMNS CITY PARK   N/A     74  13  10 SW1G12    30.19S
AURORA         PTSUNNY   72   8   8 N6        30.21S
FRONT RANGE AP PTSUNNY   73  16  11 NW3       30.20S
ERIE MUNI ARPT FAIR      70  19  14 CALM      30.23S
BOULDER MUN AP FAIR      68  23  18 CALM      30.18S
CENTENNIAL     PTSUNNY   70   9   9 N5        30.22R
BROOMFIELD     NOT AVBL
FORT COLLINS   FAIR      72  27  18 S9        30.16S
LONGMONT       FAIR      71  27  19 SW5       30.18F
$$

COZ041-046-047-076>085-087-088-181900-
...PIKES PEAK/PALMER DIVIDE AND SOUTHERN FOOTHILLS...

CITY           SKY/WX    TMP DP  RH WIND       PRES   REMARKS
COLO. SPRINGS  PTSUNNY   74  11   9 N17       30.23R
A. F. ACADEMY  FAIR      69   5   8 N10       30.25R
SCHRIEVER AFB  FAIR      73   8   8 N9        30.23R
CHEYENNE MTN   FAIR      70  13  11 N5        30.22R
ELLICOTT       FAIR     N/A N/A N/A N14G22    30.21R
FALCON         FAIR      71   5   7 N12G17    30.28R
FORT CARSON    FAIR      73   5   7 N6        30.20R
LIMON          FAIR      77  14   9 NE14      30.18S
MONUMENT HILL  FAIR      64   9  11 N9        30.30R
CANON CITY     SUNNY     66  19  16 W15       30.18F
WALSENBURG     FAIR      77  18  10 NE6       30.21S
TRINIDAD       FAIR      73  20  13 S7        30.20S
$$

COZ042>045-048>051-090-091-181900-
...NORTHEAST COLORADO...

CITY           SKY/WX    TMP DP  RH WIND       PRES   REMARKS
GREELEY ARPT   FAIR      72  36  26 SW7       30.15S
AKRON          FAIR      74  18  12 NW20      30.14R
BURLINGTON     FAIR      78  23  13 N16G25    30.12R
WRAY           FAIR      81  16   9 NW14G20   30.08S
YUMA           NOT AVBL
STERLING       FAIR      75  21  13 N14G22    30.10R
HOLYOKE        FAIR      79  21  11 N14       30.09R
FORT MORGAN    FAIR      79  10   7 NW15G23   30.14S
$$

COZ086-089-092>099-181900-
...SOUTHEAST COLORADO...

CITY           SKY/WX    TMP DP  RH WIND       PRES   REMARKS
PUEBLO         FAIR      73  17  12 NW6       30.14S
LA JUNTA       FAIR      77  29  17 N8        30.10S
LAMAR          FAIR      74  29  19 W5        30.06F HAZE
SPRINGFIELD      N/A     78  27  15 NE3       30.09F
$$




USA.gov is the U.S. government's official web portal to all federal, state and local government web resources and services.